This is the latest recevied weather packets stored in our database for station/object ZS1OSS-13. If no packets are shown the sender has not sent any weather packets the latest 10 day(s).
| Time | Temp. | Humidity | Pressure | Rain* | Wind** | Luminosity | Snow |
|---|---|---|---|---|---|---|---|
| 1777470376 | 20° C | 58% | 1019 hPa | 0 mm | - | 314 W/m² | - |
| 1777470073 | 20° C | 58% | 1019.1 hPa | 0 mm | - | 331 W/m² | - |
| 1777469769 | 20.56° C | 58% | 1019.1 hPa | 0 mm | - | 343 W/m² | - |
| 1777469465 | 20.56° C | 57% | 1019.1 hPa | 0 mm | - | 349 W/m² | - |
| 1777469165 | 20.56° C | 58% | 1019.2 hPa | 0 mm | - | 366 W/m² | - |
| 1777468859 | 20.56° C | 55% | 1019.2 hPa | 0 mm | - | 377 W/m² | - |
| 1777468556 | 20.56° C | 55% | 1019.2 hPa | 0 mm | - | 385 W/m² | - |
| 1777468253 | 20.56° C | 55% | 1019.1 hPa | 0 mm | - | 393 W/m² | - |
| 1777467950 | 20.56° C | 53% | 1019.2 hPa | 0 mm | - | 406 W/m² | - |
| 1777467645 | 20.56° C | 53% | 1019.1 hPa | 0 mm | - | 422 W/m² | - |
| 1777467340 | 21.11° C | 52% | 1019.4 hPa | 0 mm | - | 431 W/m² | - |
| 1777467037 | 20.56° C | 52% | 1019.3 hPa | 0 mm | - | 442 W/m² | - |
| 1777466735 | 20.56° C | 52% | 1019.5 hPa | 0 mm | - | 453 W/m² | - |
| 1777466432 | 20.56° C | 50% | 1019.3 hPa | 0 mm | - | 462 W/m² | - |
| 1777466127 | 20.56° C | 51% | 1019.4 hPa | 0 mm | - | 466 W/m² | - |
| 1777465824 | 20.56° C | 53% | 1019.7 hPa | 0 mm | - | 469 W/m² | - |
| 1777465520 | 20.56° C | 52% | 1019.8 hPa | 0 mm | - | 470 W/m² | - |
| 1777465215 | 20.56° C | 52% | 1019.6 hPa | 0 mm | - | 484 W/m² | - |
| 1777464910 | 20.56° C | 52% | 1019.7 hPa | 0 mm | - | 494 W/m² | - |
| 1777464605 | 20.56° C | 52% | 1019.8 hPa | 0 mm | - | 498 W/m² | - |
| 1777464301 | 20.56° C | 53% | 1019.8 hPa | 0 mm | - | 499 W/m² | - |
| 1777463996 | 20.56° C | 52% | 1020 hPa | 0 mm | - | 501 W/m² | - |
| 1777463692 | 21.11° C | 53% | 1020.1 hPa | 0 mm | - | 513 W/m² | - |
| 1777463387 | 21.11° C | 51% | 1020.2 hPa | 0 mm | - | 521 W/m² | - |
| 1777463083 | 20.56° C | 52% | 1020.1 hPa | 0 mm | - | 521 W/m² | - |
* Rain latest hour (hover to see other rain measurements)
** Current wind speed in m/s (hover to see current wind gust speed)